Location: Hains Lake
(37.8540°N, 99.8578°W)
Time: 16:39:46
(UTC+00:00)

Vanguard 1 - Pass Details

Date: 04 December 2021
Orbit: 652 x 3830 km, 34.2° (Epoch: 22 January)

Event Time Altitude Azimuth Distance (km) Brightness Sun altitude
Exits shadow 07:41:46 37° 92° (E) 4,539 13.3 -68.0°
Drops below altitude 10° 07:50:16 10° 85° (E) 5,839 14.2 -66.7°
Sets 07:54:00 0° 84° (E) 6,531 14.6 -66.1°
